Gulbeniz A — TCZK8 — position and weather

sailwx.info

Track history (hours):
 
Tides and Currents Weather Stations Pressure Air Temp Water Temp Dewpoint Dewpoint Depression Visibility Wind Speed Wind Dir Waves Ship Positions

Gulbeniz A

Last reported at 2015-Jun-01 16:33 UTC. Time now 2015-Jul-03 12:19 UTC.
Position N 26°45' W 014°58'.
Warning: this ship's position is 31 days out of date.

Length 210 m; draft 11.9 m.

Type: Ship (hazmat cat A). MMSI: 271042493.

Date/timePositionNaut miles runAvg speedWind from/ knotsBaromVisibWave heightAir tempDewpointWater temp
2015-Jun-01 16:33N 26°45' W 014°58'2914.6
2015-Jun-01 14:33N 27°08' W 014°38'1515.0
2015-Jun-01 13:33N 27°21' W 014°29'1514.6
2015-Jun-01 12:33N 27°33' W 014°20'1414.5
2015-Jun-01 11:33N 27°45' W 014°11'1514.7
2015-Jun-01 10:33N 27°56' W 014°01'1514.7
2015-Jun-01 09:33N 28°09' W 013°51'1515.2
2015-Jun-01 08:33N 28°22' W 013°42'1515.2
2015-Jun-01 07:33N 28°35' W 013°34'1515.1
2015-Jun-01 06:33N 28°48' W 013°26'1515.3
2015-Jun-01 05:33N 29°01' W 013°16'4615.4
2015-Jun-01 02:33N 29°37' W 012°43'1515.2
2015-Jun-01 01:33N 29°49' W 012°32'14415.2
2015-May-31 16:05N 31°43' W 010°50'2415.1
2015-May-31 14:31N 32°01' W 010°32'25914.4
2015-May-30 20:33N 35°10' W 006°59'1514.6
2015-May-30 19:33N 35°20' W 006°46'7813.0
2015-May-30 13:33N 36°02' W 005°25'6 5.9
2015-May-30 12:33N 36°08' W 005°25'0 0.0
2015-May-30 11:33N 36°08' W 005°25'0 0.0
2015-May-30 10:33N 36°08' W 005°25'0 0.0
2015-May-30 09:09N 36°08' W 005°25'0 0.0
2015-May-30 08:15N 36°08' W 005°25'0 0.0
2015-May-30 07:30N 36°08' W 005°25'0 0.0
2015-May-30 06:33N 36°08' W 005°25'0 0.0
2015-May-30 05:33N 36°08' W 005°25'0 0.0
2015-May-30 04:33N 36°08' W 005°25'0 0.0
2015-May-30 03:33N 36°08' W 005°25'0 0.0
2015-May-30 02:33N 36°08' W 005°25'0 0.0
2015-May-30 01:33N 36°08' W 005°25'0 0.0
2015-May-30 00:33N 36°08' W 005°25'0 0.0
2015-May-29 23:33N 36°08' W 005°25'0 0.0
2015-May-29 22:33N 36°08' W 005°25'0 0.0
2015-May-29 21:33N 36°08' W 005°25'6 5.7
2015-May-29 20:33N 36°05' W 005°19'12 6.0
2015-May-29 18:33N 36°09' W 005°05'1414.3
2015-May-29 17:34N 36°00' W 005°19'12 0.7
2015-May-29 00:25N 35°57' W 005°33'8 9.8
2015-May-28 23:33N 36°00' W 005°24'10114.4
2015-May-28 16:32N 36°17' W 003°20'1515.0
2015-May-28 15:33N 36°19' W 003°02'1515.0
2015-May-28 14:34N 36°22' W 002°44'1615.8
2015-May-28 13:33N 36°24' W 002°25'1515.5
2015-May-28 12:33N 36°29' W 002°06'1915.4
2015-May-28 11:19N 36°42' W 001°49'4215.1
2015-May-28 08:32N 37°10' W 001°09'1414.8
2015-May-28 07:33N 37°19' W 000°55'1514.9
2015-May-28 06:33N 37°29' W 000°41'1414.1
2015-May-28 05:34N 37°39' W 000°29'1414.1
2015-May-28 04:33N 37°51' W 000°20'1514.2
2015-May-28 03:32N 38°03' W 000°09'1414.0
2015-May-28 02:30N 38°15' E 000°01'1313.8
2015-May-28 01:33N 38°26' E 000°10'6112.3
2015-May-27 20:33N 39°24' W 000°15'4 3.5
2015-May-27 19:28N 39°27' W 000°19'0 0.0
2015-May-27 18:10N 39°27' W 000°19'0 0.0
2015-May-27 17:25N 39°27' W 000°19'0 0.0
2015-May-27 16:28N 39°27' W 000°19'0 0.0
2015-May-27 15:31N 39°27' W 000°19'0 0.0
2015-May-27 14:31N 39°27' W 000°19'0 0.0
2015-May-27 13:31N 39°27' W 000°19'0 0.0
2015-May-27 12:28N 39°27' W 000°19'0 0.0
2015-May-27 11:31N 39°27' W 000°19'0 0.0
2015-May-27 10:31N 39°27' W 000°19'0 0.0
2015-May-27 09:31N 39°27' W 000°19'0 0.0
2015-May-27 08:31N 39°27' W 000°19'0 0.0
2015-May-27 07:31N 39°27' W 000°19'0 0.0
2015-May-27 06:31N 39°27' W 000°19'0 0.0
2015-May-27 05:28N 39°27' W 000°19'0 0.0
2015-May-27 04:31N 39°27' W 000°19'0 0.0
2015-May-27 03:31N 39°27' W 000°19'0 0.0
2015-May-27 02:31N 39°27' W 000°19'0 0.0
2015-May-27 01:31N 39°27' W 000°19'0 0.0
2015-May-27 00:31N 39°27' W 000°19'0 0.0
2015-May-26 23:04N 39°27' W 000°19'0 0.0
2015-May-26 22:16N 39°27' W 000°19'0 0.0
2015-May-26 21:31N 39°27' W 000°19'0 0.0
2015-May-26 20:31N 39°27' W 000°19'0 0.0
2015-May-26 19:31N 39°27' W 000°19'0 0.0
2015-May-26 18:31N 39°27' W 000°19'0 0.0
2015-May-26 17:31N 39°27' W 000°19'0 0.0
2015-May-26 16:31N 39°27' W 000°19'0 0.0
2015-May-26 15:31N 39°27' W 000°19'0 0.0
2015-May-26 14:31N 39°27' W 000°19'0 0.0
2015-May-26 13:31N 39°27' W 000°19'0 0.0
2015-May-26 12:31N 39°27' W 000°19'0 0.0
2015-May-26 11:31N 39°27' W 000°19'0 0.0
2015-May-26 10:25N 39°27' W 000°19'4 5.0
2015-May-26 09:33N 39°24' W 000°14'2 1.3
2015-May-26 08:05N 39°24' W 000°12'4 7.8
2015-May-26 07:33N 39°28' W 000°12'1212.3
2015-May-26 06:33N 39°38' W 000°02'7914.4
2015-May-26 01:03N 40°40' E 001°02'814.8
2015-May-26 00:32N 40°48' E 001°05'19 8.1
2015-May-25 22:14N 41°06' E 001°13'0 0.0
2015-May-25 21:26N 41°06' E 001°13'0 0.0
2015-May-25 20:32N 41°06' E 001°13'0 0.0
2015-May-25 19:26N 41°06' E 001°13'0 0.0
2015-May-25 18:20N 41°06' E 001°13'0 0.0
2015-May-25 17:08N 41°06' E 001°13'1 0.1
2015-May-25 10:18N 41°05' E 001°13'3 4.5
2015-May-25 09:33N 41°02' E 001°12'1313.3
2015-May-25 08:33N 40°49' E 001°08'1313.3
2015-May-25 07:33N 40°36' E 001°05'1313.1
2015-May-25 06:33N 40°23' E 001°01'1313.4
2015-May-25 05:33N 40°10' E 000°57'1313.3
2015-May-25 04:33N 39°57' E 000°53'3313.5
2015-May-25 02:06N 39°25' E 000°43'11413.3
2015-May-24 17:34N 37°44' W 000°23'1413.8
2015-May-24 16:33N 37°32' W 000°33'1313.4
2015-May-24 15:33N 37°23' W 000°46'1313.5
2015-May-24 14:33N 37°14' W 000°59'21212.9
2015-May-23 22:11N 36°02' W 005°06'914.5
2015-May-23 21:33N 36°00' W 005°17'  
Track history (hours):
 
Tides and Currents Weather Stations Pressure Air Temp Water Temp Dewpoint Dewpoint Depression Visibility Wind Speed Wind Dir Waves Ship Positions

Gulbeniz A

Last reported at 2015-Jun-01 16:33 UTC. Time now 2015-Jul-03 12:19 UTC.
Position N 26°45' W 014°58'.
Warning: this ship's position is 31 days out of date.

Length 210 m; draft 11.9 m.

Type: Ship (hazmat cat A). MMSI: 271042493.

Date/timePositionNaut miles runAvg speedWind from/ knotsBaromVisibWave heightAir tempDewpointWater temp
2015-Jun-01 16:33N 26°45' W 014°58'2914.6
2015-Jun-01 14:33N 27°08' W 014°38'1515.0
2015-Jun-01 13:33N 27°21' W 014°29'1514.6
2015-Jun-01 12:33N 27°33' W 014°20'1414.5
2015-Jun-01 11:33N 27°45' W 014°11'1514.7
2015-Jun-01 10:33N 27°56' W 014°01'1514.7
2015-Jun-01 09:33N 28°09' W 013°51'1515.2
2015-Jun-01 08:33N 28°22' W 013°42'1515.2
2015-Jun-01 07:33N 28°35' W 013°34'1515.1
2015-Jun-01 06:33N 28°48' W 013°26'1515.3
2015-Jun-01 05:33N 29°01' W 013°16'4615.4
2015-Jun-01 02:33N 29°37' W 012°43'1515.2
2015-Jun-01 01:33N 29°49' W 012°32'14415.2
2015-May-31 16:05N 31°43' W 010°50'2415.1
2015-May-31 14:31N 32°01' W 010°32'25914.4
2015-May-30 20:33N 35°10' W 006°59'1514.6
2015-May-30 19:33N 35°20' W 006°46'7813.0
2015-May-30 13:33N 36°02' W 005°25'6 5.9
2015-May-30 12:33N 36°08' W 005°25'0 0.0
2015-May-30 11:33N 36°08' W 005°25'0 0.0
2015-May-30 10:33N 36°08' W 005°25'0 0.0
2015-May-30 09:09N 36°08' W 005°25'0 0.0
2015-May-30 08:15N 36°08' W 005°25'0 0.0
2015-May-30 07:30N 36°08' W 005°25'0 0.0
2015-May-30 06:33N 36°08' W 005°25'0 0.0
2015-May-30 05:33N 36°08' W 005°25'0 0.0
2015-May-30 04:33N 36°08' W 005°25'0 0.0
2015-May-30 03:33N 36°08' W 005°25'0 0.0
2015-May-30 02:33N 36°08' W 005°25'0 0.0
2015-May-30 01:33N 36°08' W 005°25'0 0.0
2015-May-30 00:33N 36°08' W 005°25'0 0.0
2015-May-29 23:33N 36°08' W 005°25'0 0.0
2015-May-29 22:33N 36°08' W 005°25'0 0.0
2015-May-29 21:33N 36°08' W 005°25'6 5.7
2015-May-29 20:33N 36°05' W 005°19'12 6.0
2015-May-29 18:33N 36°09' W 005°05'1414.3
2015-May-29 17:34N 36°00' W 005°19'12 0.7
2015-May-29 00:25N 35°57' W 005°33'8 9.8
2015-May-28 23:33N 36°00' W 005°24'10114.4
2015-May-28 16:32N 36°17' W 003°20'1515.0
2015-May-28 15:33N 36°19' W 003°02'1515.0
2015-May-28 14:34N 36°22' W 002°44'1615.8
2015-May-28 13:33N 36°24' W 002°25'1515.5
2015-May-28 12:33N 36°29' W 002°06'1915.4
2015-May-28 11:19N 36°42' W 001°49'4215.1
2015-May-28 08:32N 37°10' W 001°09'1414.8
2015-May-28 07:33N 37°19' W 000°55'1514.9
2015-May-28 06:33N 37°29' W 000°41'1414.1
2015-May-28 05:34N 37°39' W 000°29'1414.1
2015-May-28 04:33N 37°51' W 000°20'1514.2
2015-May-28 03:32N 38°03' W 000°09'1414.0
2015-May-28 02:30N 38°15' E 000°01'1313.8
2015-May-28 01:33N 38°26' E 000°10'6112.3
2015-May-27 20:33N 39°24' W 000°15'4 3.5
2015-May-27 19:28N 39°27' W 000°19'0 0.0
2015-May-27 18:10N 39°27' W 000°19'0 0.0
2015-May-27 17:25N 39°27' W 000°19'0 0.0
2015-May-27 16:28N 39°27' W 000°19'0 0.0
2015-May-27 15:31N 39°27' W 000°19'0 0.0
2015-May-27 14:31N 39°27' W 000°19'0 0.0
2015-May-27 13:31N 39°27' W 000°19'0 0.0
2015-May-27 12:28N 39°27' W 000°19'0 0.0
2015-May-27 11:31N 39°27' W 000°19'0 0.0
2015-May-27 10:31N 39°27' W 000°19'0 0.0
2015-May-27 09:31N 39°27' W 000°19'0 0.0
2015-May-27 08:31N 39°27' W 000°19'0 0.0
2015-May-27 07:31N 39°27' W 000°19'0 0.0
2015-May-27 06:31N 39°27' W 000°19'0 0.0
2015-May-27 05:28N 39°27' W 000°19'0 0.0
2015-May-27 04:31N 39°27' W 000°19'0 0.0
2015-May-27 03:31N 39°27' W 000°19'0 0.0
2015-May-27 02:31N 39°27' W 000°19'0 0.0
2015-May-27 01:31N 39°27' W 000°19'0 0.0
2015-May-27 00:31N 39°27' W 000°19'0 0.0
2015-May-26 23:04N 39°27' W 000°19'0 0.0
2015-May-26 22:16N 39°27' W 000°19'0 0.0
2015-May-26 21:31N 39°27' W 000°19'0 0.0
2015-May-26 20:31N 39°27' W 000°19'0 0.0
2015-May-26 19:31N 39°27' W 000°19'0 0.0
2015-May-26 18:31N 39°27' W 000°19'0 0.0
2015-May-26 17:31N 39°27' W 000°19'0 0.0
2015-May-26 16:31N 39°27' W 000°19'0 0.0
2015-May-26 15:31N 39°27' W 000°19'0 0.0
2015-May-26 14:31N 39°27' W 000°19'0 0.0
2015-May-26 13:31N 39°27' W 000°19'0 0.0
2015-May-26 12:31N 39°27' W 000°19'0 0.0
2015-May-26 11:31N 39°27' W 000°19'0 0.0
2015-May-26 10:25N 39°27' W 000°19'4 5.0
2015-May-26 09:33N 39°24' W 000°14'2 1.3
2015-May-26 08:05N 39°24' W 000°12'4 7.8
2015-May-26 07:33N 39°28' W 000°12'1212.3
2015-May-26 06:33N 39°38' W 000°02'7914.4
2015-May-26 01:03N 40°40' E 001°02'814.8
2015-May-26 00:32N 40°48' E 001°05'19 8.1
2015-May-25 22:14N 41°06' E 001°13'0 0.0
2015-May-25 21:26N 41°06' E 001°13'0 0.0
2015-May-25 20:32N 41°06' E 001°13'0 0.0
2015-May-25 19:26N 41°06' E 001°13'0 0.0
2015-May-25 18:20N 41°06' E 001°13'0 0.0
2015-May-25 17:08N 41°06' E 001°13'1 0.1
2015-May-25 10:18N 41°05' E 001°13'3 4.5
2015-May-25 09:33N 41°02' E 001°12'1313.3
2015-May-25 08:33N 40°49' E 001°08'1313.3
2015-May-25 07:33N 40°36' E 001°05'1313.1
2015-May-25 06:33N 40°23' E 001°01'1313.4
2015-May-25 05:33N 40°10' E 000°57'1313.3
2015-May-25 04:33N 39°57' E 000°53'3313.5
2015-May-25 02:06N 39°25' E 000°43'11413.3
2015-May-24 17:34N 37°44' W 000°23'1413.8
2015-May-24 16:33N 37°32' W 000°33'1313.4
2015-May-24 15:33N 37°23' W 000°46'1313.5
2015-May-24 14:33N 37°14' W 000°59'21212.9
2015-May-23 22:11N 36°02' W 005°06'914.5
2015-May-23 21:33N 36°00' W 005°17'  

Dump ship's entire track history